EUTELSAT 117 WEST B (W*)

Last updated on Sat Sep 05 2026 00:03:32 GMT+0000 (Coordinated Universal Time)

1 41589U 16038B 26247.57277176 -.00000019 00000+0 00000+0 0 9997 2 41589 0.0041 346.4811 0000148 20.5174 65.8998 1.00272458 37456
UTC large
Height (km)
Speed (km/s)
/
Latitude / Longitude
Inclination (degrees)
Orbital Period (minutes)
Azimuth
Elevation
Range (km)
Doppler Factor

Next 0 passes for location: London (51.5072 / 0.1276)

No passes found over London.
EUTELSAT 117 WEST B (W*)